Voltar ao catálogo

PRAETORIAN SDA_512

AtivoPO
NORAD 100070·PAYLOAD·🇺🇸 United States

Lançado Jul 16, 2026 de Vandenberg Space Force Base

Loading…

Próximas Passagens (próximas 24 horas)

TLE

AtualizadoSource: Space-Track

Época: Sep 14, 2026, 23:11 UTC

1 A0070U 26163M   26257.96624022  .00000122  00000-0  95280-4 0  9991
2 A0070  81.4790 254.9925 0016404  53.8630 306.4043 13.85888255  8331

Acompanhe PRAETORIAN SDA_512 em tempo real com AllMySat

Download on the App Store